[[{"header":{"parameterUnit":"m.s-1","parameterCategory":1,"la1":30.2991,"la2":30.254,"lo1":-89.0895,"lo2":-89.0444,"dy":0.0017,"dx":0.0017,"nx":28,"ny":28,"refTime":"2023-10-16T03:00:00:Z","depth":0,"parameterNumber":2,"parameterNumberName":"U-component_of_WINDS"},"data":[0,0,0,0,0,0,0,0,0,0,0,0,0,0,0,0,0,0,0,0,0,0,0,0,0,0,0,0,0,0,0,0,0,0,0,0,0,0,0,0,0,0,0,0,0,0,0,0,0,0,0,0,0,0,0,0,0,0,1.6811,1.681,0,1.6783,1.6783,1.6782,1.6771,1.6772,1.6772,1.6772,1.6741,1.674,1.6739,0,0,0,0,0,0,0,0,0,0,0,0,0,1.6852,1.6851,1.6811,1.681,1.681,1.6783,1.6783,1.6782,1.6771,1.6772,1.6772,1.6772,1.6741,1.674,1.6739,0,0,0,0,0,0,0,0,0,0,0,0,0,1.683,1.6851,1.6811,1.6801,1.68,1.6783,1.6783,1.6782,1.6771,1.6772,1.6772,1.6772,1.6742,1.674,1.6739,1.6729,0,0,1.6735,1.6734,0,0,0,0,0,0,0,0,1.6831,1.6829,1.6803,1.6802,1.6801,1.6781,1.6786,1.6764,1.6771,1.6782,1.6772,1.6772,1.6754,1.6752,1.6746,1.6727,1.6726,1.6735,1.6734,1.6733,1.6733,0,0,0,0,0,0,0,1.6833,1.683,1.68,1.6803,1.6801,1.6798,1.6795,1.6782,1.6768,1.6781,1.6781,1.6778,1.6753,1.6747,1.6745,1.6725,1.6735,1.6734,1.6733,1.6732,1.6697,1.6697,0,0,0,0,0,0,1.6836,1.6831,1.68,1.6799,1.6817,1.6797,1.6794,1.6787,1.6768,1.6765,1.6777,1.6777,1.675,1.6747,1.6744,1.6731,1.6733,1.6732,1.6731,1.6697,1.6697,1.6697,0,0,0,0,0,0,1.6837,1.6834,1.6802,1.6815,1.681,1.6796,1.6789,1.6786,1.6781,1.6765,1.6762,1.6774,1.675,1.6746,1.6733,1.673,1.6732,1.673,1.6697,1.6697,1.6697,1.6704,0,0,0,0,0,0,1.6838,1.6834,1.683,1.6815,1.681,1.6791,1.6789,1.6786,1.6779,1.6778,1.6761,1.6758,1.6749,1.6735,1.6732,1.6728,1.6729,1.6697,1.6697,1.6697,1.6704,1.6704,1.6704,0,0,0,0,0,1.684,1.6833,1.683,1.6826,1.6805,1.6791,1.6788,1.6779,1.6778,1.6774,1.6764,1.6759,1.6731,1.6734,1.673,1.6726,1.6698,1.6697,1.6697,1.6704,1.6704,1.6704,0,0,0,0,0,0,1.6847,1.683,1.6827,1.6815,1.6805,1.6789,1.6783,1.6779,1.6768,1.6767,1.6756,1.6752,1.674,1.6731,1.6735,1.6715,1.6714,1.6713,1.6721,1.6721,1.6721,1.6723,1.6728,0,0,0,0,0,1.6847,1.6838,1.6824,1.6814,1.6809,1.6798,1.6791,1.6785,1.6773,1.6769,1.6758,1.6746,1.6735,1.6727,1.6716,1.6703,1.6699,1.6699,1.6699,1.6699,1.6698,1.6691,1.669,1.6696,1.6696,1.6696,0,0,1.6847,1.6837,1.6832,1.6816,1.6807,1.6797,1.6794,1.6783,1.6776,1.6767,1.6754,1.6746,1.6732,1.6719,1.6713,1.6712,1.6696,1.6699,1.6699,1.6698,1.6691,1.669,1.669,1.6695,1.6695,1.6696,0,0,1.6842,1.6834,1.6825,1.6817,1.6804,1.6797,1.6795,1.678,1.6775,1.6762,1.6755,1.6746,1.6726,1.6717,1.671,1.6703,1.6698,1.67,1.67,1.6693,1.6693,1.6692,1.669,1.6689,1.6699,1.6699,1.6699,0,1.6844,1.6829,1.6821,1.6812,1.6805,1.6797,1.6788,1.678,1.6764,1.6759,1.6759,1.6735,1.6725,1.671,1.6709,1.6703,1.67,1.6701,1.6694,1.6693,1.6693,1.669,1.6689,1.6699,1.6699,1.6699,1.6699,0,1.6832,1.6822,1.6817,1.6803,1.6795,1.6786,1.6776,1.6769,1.6764,1.6756,1.6744,1.6732,1.6718,1.6714,1.6709,1.6699,1.6699,1.6696,1.6695,1.6693,1.669,1.6689,1.67,1.6699,1.6699,1.6699,0,0,1.6829,1.6812,1.681,1.6804,1.679,1.6782,1.6772,1.676,1.6755,1.6744,1.6736,1.672,1.6718,1.671,1.6704,1.6698,1.6694,1.6696,1.6696,1.6696,1.6682,1.6684,1.6683,1.669,1.669,1.669,1.6683,0,1.6822,1.6805,1.6798,1.6785,1.6776,1.677,1.6761,1.6752,1.6745,1.6736,1.6728,1.6717,1.6715,1.671,1.6705,1.6695,1.6691,1.6696,1.6682,1.6682,1.6685,1.6682,1.6683,1.6677,1.6682,1.6682,1.6682,0,1.6811,1.6802,1.6788,1.6776,1.6772,1.6765,1.6754,1.6745,1.6735,1.673,1.6722,1.6716,1.6705,1.6706,1.6691,1.6695,1.6689,1.6684,1.6683,1.6681,1.6681,1.6679,1.6675,1.6674,1.668,1.6681,1.6681,0,1.681,1.6794,1.6784,1.6779,1.6765,1.676,1.6754,1.6744,1.6737,1.6727,1.6723,1.6711,1.6705,1.6696,1.6687,1.6688,1.6674,1.6673,1.6669,1.667,1.6666,1.6666,1.6661,1.6663,1.6663,1.6663,1.6663,0,1.6803,1.6794,1.6784,1.6777,1.6768,1.676,1.6751,1.6744,1.6735,1.6727,1.6721,1.6713,1.6702,1.6693,1.6686,1.6676,1.6673,1.6668,1.6667,1.6669,1.6669,1.6664,1.6664,1.6663,1.6663,1.6663,1.6663,0,1.68,1.6792,1.6781,1.6769,1.6766,1.6759,1.6749,1.6743,1.6736,1.6726,1.6723,1.6712,1.6702,1.6693,1.6678,1.6674,1.6662,1.666,1.6666,1.6665,1.6662,1.6662,1.6652,1.6651,1.6655,1.6655,1.6655,0,1.6795,1.6788,1.6777,1.6771,1.6766,1.6757,1.6751,1.6743,1.6737,1.6725,1.672,1.6709,1.67,1.6683,1.6674,1.6663,1.666,1.6658,1.6658,1.6661,1.666,1.666,1.6659,1.6657,1.6657,1.6657,1.6657,0,1.6787,1.6784,1.6776,1.6767,1.676,1.6752,1.6743,1.6739,1.673,1.6723,1.6713,1.6706,1.6692,1.6681,1.667,1.6663,1.6658,1.6657,1.6656,1.6657,1.6661,1.6659,1.6666,1.6657,1.6657,1.6657,1.6657,1.6657,1.6783,1.6777,1.6768,1.6759,1.6753,1.6746,1.6739,1.6732,1.6724,1.6713,1.6709,1.6698,1.6688,1.6673,1.6666,1.6658,1.6657,1.6654,1.6654,1.6653,1.6654,1.6663,1.6655,1.6655,1.6655,1.6655,1.6655,0,1.6774,1.6769,1.6761,1.675,1.6743,1.6741,1.6733,1.6727,1.6718,1.671,1.6701,1.669,1.668,1.667,1.666,1.6655,1.6653,1.6652,1.6652,1.6651,1.6655,1.6657,1.6654,1.6654,1.6654,1.6654,1.6654,1.6654,1.6769,1.676,1.6756,1.6743,1.6737,1.6728,1.6723,1.6716,1.671,1.6698,1.669,1.6684,1.6676,1.6665,1.6656,1.6653,1.6649,1.665,1.6646,1.665,1.665,1.6651,1.6653,1.6649,1.6649,1.6643,1.6643,1.6643]},{"header":{"parameterUnit":"m.s-1","parameterCategory":1,"la1":30.2991,"la2":30.254,"lo1":-89.0895,"lo2":-89.0444,"dy":0.0017,"dx":0.0017,"nx":28,"ny":28,"refTime":"2023-10-16T03:00:00:Z","depth":0,"parameterNumber":3,"parameterNumberName":"V-component_of_WINDS"},"data":[0,0,0,0,0,0,0,0,0,0,0,0,0,0,0,0,0,0,0,0,0,0,0,0,0,0,0,0,0,0,0,0,0,0,0,0,0,0,0,0,0,0,0,0,0,0,0,0,0,0,0,0,0,0,0,0,0,0,-7.4715,-7.4717,0,-7.4888,-7.489,-7.4892,-7.4783,-7.4778,-7.4773,-7.4768,-7.4938,-7.4947,-7.4956,0,0,0,0,0,0,0,0,0,0,0,0,0,-7.4285,-7.4294,-7.4715,-7.4717,-7.4719,-7.4887,-7.489,-7.4892,-7.4784,-7.4778,-7.4772,-7.4766,-7.4935,-7.4946,-7.4957,0,0,0,0,0,0,0,0,0,0,0,0,0,-7.4466,-7.4296,-7.4715,-7.4686,-7.4685,-7.4887,-7.489,-7.4893,-7.4785,-7.4778,-7.477,-7.4763,-7.4931,-7.4945,-7.4958,-7.5196,0,0,-7.5001,-7.5007,0,0,0,0,0,0,0,0,-7.4456,-7.4482,-7.4688,-7.4688,-7.4688,-7.4806,-7.48,-7.4994,-7.4787,-7.4747,-7.4768,-7.4759,-7.49,-7.4916,-7.4965,-7.5204,-7.5211,-7.5002,-7.501,-7.5016,-7.502,0,0,0,0,0,0,0,-7.4444,-7.4474,-7.4783,-7.4691,-7.4691,-7.4662,-7.4679,-7.4837,-7.4864,-7.475,-7.4742,-7.4765,-7.4898,-7.4951,-7.4968,-7.5214,-7.5001,-7.5014,-7.5022,-7.5028,-7.5657,-7.5665,0,0,0,0,0,0,-7.4434,-7.4464,-7.4777,-7.4788,-7.4551,-7.4676,-7.4695,-7.4776,-7.4862,-7.4868,-7.4771,-7.4759,-7.4931,-7.4952,-7.4973,-7.5258,-7.5016,-7.5029,-7.5037,-7.5649,-7.5659,-7.5668,0,0,0,0,0,0,-7.4425,-7.4463,-7.4771,-7.4624,-7.4661,-7.4692,-7.4783,-7.4783,-7.4836,-7.4878,-7.4881,-7.4821,-7.4926,-7.4954,-7.5142,-7.5262,-7.5035,-7.5048,-7.5639,-7.5652,-7.5664,-7.583,0,0,0,0,0,0,-7.4414,-7.4461,-7.4553,-7.4627,-7.467,-7.4939,-7.479,-7.4792,-7.4862,-7.4847,-7.4926,-7.4931,-7.4922,-7.5122,-7.5156,-7.5277,-7.5059,-7.5628,-7.5645,-7.566,-7.5814,-7.5846,-7.5874,0,0,0,0,0,-7.4399,-7.4591,-7.4558,-7.4597,-7.4786,-7.4946,-7.497,-7.4958,-7.4872,-7.4964,-7.499,-7.4929,-7.5244,-7.5142,-7.5179,-7.5307,-7.5621,-7.564,-7.5658,-7.58,-7.584,-7.5874,0,0,0,0,0,0,-7.4527,-7.46,-7.4565,-7.4787,-7.4862,-7.4928,-7.5044,-7.5001,-7.51,-7.5082,-7.506,-7.5079,-7.5276,-7.531,-7.5196,-7.5542,-7.5418,-7.5445,-7.5513,-7.5551,-7.5581,-7.5569,-7.507,0,0,0,0,0,-7.4582,-7.4709,-7.4764,-7.4955,-7.4995,-7.5014,-7.5083,-7.5067,-7.5142,-7.5173,-7.5213,-7.5286,-7.5401,-7.5478,-7.5586,-7.5817,-7.5833,-7.5923,-7.5954,-7.5978,-7.6003,-7.6128,-7.6169,-7.573,-7.573,-7.573,0,0,-7.4696,-7.4751,-7.4832,-7.4983,-7.5039,-7.5169,-7.504,-7.5183,-7.5278,-7.5193,-7.5375,-7.5407,-7.5487,-7.5699,-7.5793,-7.5733,-7.6127,-7.6003,-7.6022,-7.6033,-7.6151,-7.6193,-7.623,-7.5743,-7.5741,-7.5739,0,0,-7.497,-7.5025,-7.5191,-7.525,-7.5337,-7.5348,-7.5388,-7.5461,-7.548,-7.5662,-7.5602,-7.5713,-7.5913,-7.5973,-7.6029,-7.6327,-7.6274,-7.6362,-7.6522,-7.6644,-7.6679,-7.6709,-7.6816,-7.6855,-7.6386,-7.6386,-7.6387,0,-7.5099,-7.5295,-7.528,-7.5429,-7.5497,-7.5428,-7.5595,-7.5652,-7.577,-7.5817,-7.5748,-7.5997,-7.6046,-7.6271,-7.6344,-7.6392,-7.6436,-7.6354,-7.6675,-7.6706,-7.6734,-7.6836,-7.6876,-7.6397,-7.6396,-7.6394,-7.6394,0,-7.5451,-7.5587,-7.571,-7.5829,-7.591,-7.6067,-7.6074,-7.6158,-7.6135,-7.6153,-7.6339,-7.6396,-7.6515,-7.6567,-7.6545,-7.6789,-7.6749,-7.6678,-7.6553,-7.6786,-7.6882,-7.692,-7.6411,-7.6408,-7.6405,-7.6402,0,0,-7.5811,-7.592,-7.5966,-7.6019,-7.611,-7.6214,-7.6367,-7.6487,-7.6559,-7.6642,-7.6769,-7.694,-7.6876,-7.694,-7.6924,-7.7031,-7.7264,-7.6947,-7.6948,-7.7005,-7.7537,-7.7591,-7.7636,-7.7229,-7.7237,-7.7243,-7.7531,0,-7.6091,-7.6361,-7.6353,-7.6604,-7.673,-7.6666,-7.6799,-7.6869,-7.689,-7.6997,-7.7018,-7.7141,-7.7046,-7.7085,-7.7188,-7.7214,-7.7371,-7.7193,-7.7346,-7.7352,-7.733,-7.7686,-7.7743,-7.8012,-7.7568,-7.7574,-7.7578,0,-7.6454,-7.6553,-7.6818,-7.6892,-7.6944,-7.7064,-7.7173,-7.7277,-7.7354,-7.7361,-7.7435,-7.7402,-7.7555,-7.7426,-7.7636,-7.7515,-7.7577,-7.76,-7.761,-7.7624,-7.748,-7.7711,-7.8097,-7.8139,-7.7637,-7.7632,-7.7628,0,-7.6692,-7.689,-7.7074,-7.7122,-7.7212,-7.7298,-7.734,-7.7409,-7.7482,-7.7576,-7.7622,-7.7732,-7.7792,-7.7877,-7.7874,-7.778,-7.8087,-7.7958,-7.8097,-7.8098,-7.8165,-7.8161,-7.8569,-7.8204,-7.8203,-7.8202,-7.8201,0,-7.7006,-7.7171,-7.7183,-7.7297,-7.7478,-7.7466,-7.7646,-7.7678,-7.7741,-7.7858,-7.7808,-7.7918,-7.7907,-7.8018,-7.8016,-7.8191,-7.8218,-7.8227,-7.8225,-7.8233,-7.8232,-7.8274,-7.8255,-7.8213,-7.8211,-7.8209,-7.8207,0,-7.7303,-7.7318,-7.7515,-7.7585,-7.7607,-7.7738,-7.7797,-7.7904,-7.792,-7.8069,-7.8103,-7.8128,-7.8256,-7.8262,-7.8408,-7.8406,-7.862,-7.8596,-7.8595,-7.8591,-7.873,-7.8718,-7.9179,-7.924,-7.8835,-7.8839,-7.8842,0,-7.7504,-7.7629,-7.7714,-7.7791,-7.7838,-7.7961,-7.8035,-7.8027,-7.8106,-7.8204,-7.8299,-7.8423,-7.8522,-7.8729,-7.8759,-7.887,-7.8849,-7.9004,-7.8866,-7.887,-7.8853,-7.8846,-7.8859,-7.9031,-7.9035,-7.9039,-7.9042,0,-7.7858,-7.786,-7.797,-7.8085,-7.8176,-7.8265,-7.8347,-7.8411,-7.8412,-7.8504,-7.8636,-7.8713,-7.8863,-7.8987,-7.9096,-7.9135,-7.909,-7.9085,-7.9123,-7.9133,-7.9128,-7.9134,-7.867,-7.9075,-7.9071,-7.9069,-7.9067,-7.9066,-7.8114,-7.8223,-7.8301,-7.8426,-7.8487,-7.8566,-7.867,-7.8701,-7.8811,-7.8936,-7.8923,-7.907,-7.9142,-7.9284,-7.9333,-7.9446,-7.9393,-7.9448,-7.9462,-7.9476,-7.9492,-7.911,-7.9465,-7.9464,-7.9463,-7.9463,-7.9462,0,-7.8467,-7.8514,-7.8629,-7.8748,-7.8846,-7.8796,-7.8885,-7.897,-7.91,-7.9173,-7.9273,-7.9424,-7.9544,-7.9584,-7.9699,-7.9782,-7.9764,-7.9813,-7.9807,-7.9817,-7.9532,-7.9488,-7.9826,-7.9826,-7.9826,-7.9826,-7.9826,-7.9825,-7.8662,-7.8845,-7.8856,-7.9068,-7.9112,-7.9258,-7.9313,-7.9385,-7.9443,-7.9616,-7.9717,-7.9742,-7.9802,-7.9922,-8.0029,-8.0037,-8.0082,-8.0141,-8.014,-7.9874,-7.9837,-7.9802,-7.9761,-8.015,-8.0151,-8.0416,-8.0418,-8.042]}]]